LEOIR Weather Reports


Display with metric or nautical units.
time (UTC)temp
F
wind
direction
speed
MPH
gust
MPH
rain 1hr
in
rain 24hr
in
rain mn
in
humidity
%
barometer
mb
20260504201558 64 42 0.0 0.0 0.00 0.00 0.00 39 1009.9
20260504200058 65 42 0.0 0.0 0.00 0.00 0.00 36 1009.8
20260504194606 66 42 0.0 0.0 0.00 0.00 0.00 35 1009.8
20260504193109 67 42 0.0 1.0 0.00 0.00 0.00 34 1009.9
20260504191556 68 42 0.0 1.0 0.00 0.00 0.00 33 1009.9
20260504190116 69 42 0.0 0.0 0.00 0.00 0.00 31 1009.8
20260504184606 70 42 0.0 0.0 0.00 0.00 0.00 30 1009.7
20260504183054 72 42 0.0 0.0 0.00 0.00 0.00 28 1009.6
20260504181554 73 42 0.0 1.0 0.00 0.00 0.00 26 1009.5
20260504180053 74 42 0.0 1.0 0.00 0.00 0.00 25 1009.4
20260504174601 75 42 0.0 1.0 0.00 0.00 0.00 24 1009.3
20260504173056 76 42 0.0 1.0 0.00 0.00 0.00 23 1009.3
20260504171551 77 42 0.0 0.0 0.00 0.00 0.00 22 1009.1
20260504090116 77 65 0.0 3.0 0.00 0.00 0.00 31 1013.0
20260504081540 76 86 0.0 5.0 0.00 0.00 0.00 31 1013.1
20260504060105 63 14 0.0 0.0 0.00 0.00 0.00 50 1013.3
20260504044555 55 4 0.0 0.0 0.00 0.00 0.00 57 1013.2
20260504043036 55 21 0.0 1.0 0.00 0.00 0.00 58 1013.1
20260504041530 55 21 0.0 0.0 0.00 0.00 0.00 58 1013.2
20260504040026 53 21 0.0 0.0 0.00 0.00 0.00 60 1013.2
20260504034533 51 21 0.0 0.0 0.00 0.00 0.00 63 1013.3
20260504033018 50 21 0.0 0.0 0.00 0.00 0.00 66 1013.4
20260504031515 49 21 0.0 0.0 0.00 0.00 0.00 68 1013.5
20260504030013 48 21 0.0 0.0 0.00 0.00 0.00 68 1013.5
20260504024517 49 21 0.0 0.0 0.00 0.00 0.00 67 1013.5
20260504023008 49 21 0.0 0.0 0.00 0.00 0.00 66 1013.5
20260504021506 50 21 0.0 0.0 0.00 0.00 0.00 65 1013.4
20260504020008 51 21 0.0 0.0 0.00 0.00 0.00 64 1013.4
20260504014502 50 21 0.0 0.0 0.00 0.00 0.00 64 1013.4
20260504013101 50 21 0.0 0.0 0.00 0.00 0.00 65 1013.5
20260504011558 50 21 0.0 0.0 0.00 0.00 0.00 64 1013.5
20260504010059 51 21 0.0 0.0 0.00 0.00 0.00 63 1013.5
20260504004552 51 21 0.0 0.0 0.00 0.00 0.00 62 1013.5
20260504003050 52 21 0.0 0.0 0.00 0.00 0.00 62 1013.6
20260504001606 52 21 0.0 0.0 0.00 0.00 0.00 61 1013.6
20260504000045 53 21 0.0 0.0 0.00 0.00 0.00 60 1013.6
20260503234541 53 21 0.0 0.0 0.00 0.00 0.00 59 1013.6
20260503233037 54 21 0.0 0.0 0.00 0.00 0.00 58 1013.6
20260503231535 54 21 0.0 0.0 0.00 0.00 0.00 58 1013.6
20260503230032 55 21 0.0 0.0 0.00 0.00 0.00 57 1013.7
20260503224529 55 21 0.0 0.0 0.00 0.00 0.00 57 1013.6
20260503223026 56 21 0.0 0.0 0.00 0.00 0.00 55 1013.6
20260503221531 57 21 0.0 0.0 0.00 0.00 0.00 55 1013.6
20260503220020 57 21 0.0 0.0 0.00 0.00 0.00 53 1013.6
20260503214519 58 21 0.0 0.0 0.00 0.00 0.00 52 1013.6
20260503213028 59 21 0.0 0.0 0.00 0.00 0.00 52 1013.6
20260503211520 59 21 0.0 0.0 0.00 0.00 0.00 51 1013.6
20260503210017 59 21 0.0 0.0 0.00 0.00 0.00 51 1013.6
20260503204523 60 21 0.0 0.0 0.00 0.00 0.00 52 1013.5
20260503203017 60 21 0.0 0.0 0.00 0.00 0.00 51 1013.6